Location: Ammerlügen
(47.2167°N, 9.6000°E)
Time: 07:30:28
(UTC+00:00)

Daily predictions for brighter satellites

Satellite Brightness Start Highest point End
(mag) Time Altitude Azimuth Time Altitude Azimuth Time Altitude Azimuth
Cosmos 1975 Rocket 3.4 19:54:41 10° SSE 19:58:58 48° E 20:03:16 10° NNE
Cosmos 1603 4.1 19:53:37 10° SSW 19:59:18 73° WNW 20:05:05 10° NNE
Terra 3.2 19:55:49 10° ESE 19:59:39 25° ENE 20:03:28 10° N
Meteor 2-5 Rocket 4.0 19:56:10 10° SSE 20:01:27 49° E 20:06:46 10° NNE
CARTOSAT-1 3.8 19:57:19 10° SSE 20:01:32 59° ENE 20:05:48 10° N
PSLV R/B 4.0 19:57:47 10° NNE 20:01:55 85° WNW 20:06:04 10° SSW
FALCON 9 DEB 3.4 19:59:10 10° WSW 20:02:25 67° NNW 20:05:40 10° ENE
ERS-1 Rocket 3.8 20:04:27 10° SE 20:09:03 38° ENE 20:13:42 10° N
Cosmos 1745 Rocket 4.3 20:04:10 10° NNW 20:10:18 72° W 20:16:25 10° S
Cosmos 2056 Rocket 3.8 20:06:02 10° S 20:11:12 51° ESE 20:16:28 10° NNE
Cosmos 1140 Rocket 3.8 20:07:06 10° NNW 20:12:17 69° WSW 20:17:24 10° S
Cosmos 2084 3.8 20:10:05 10° S 20:13:35 34° ESE 20:17:06 10° ENE
Cosmos 1455 3.0 20:12:07 10° N 20:15:38 35° ENE 20:19:03 11° SE
Cosmos 1544 Rocket 4.1 20:12:48 10° N 20:16:57 43° ENE 20:21:02 10° SSE
Cosmos 1953 4.2 20:13:39 10° NNW 20:17:03 28° W 20:20:27 10° SSW
CZ-4B R/B 1.5 20:15:04 10° N 20:17:56 62° WNW 20:20:46 10° SSW
X-37B 1.4 20:16:14 10° SW 20:18:35 24° SSE 20:20:57 10° E
Cosmos 676 Rocket 4.3 20:14:56 10° NNW 20:20:12 57° ENE 20:25:12 11° SE
Cosmos 1420 Rocket 4.3 20:15:14 10° S 20:20:15 49° ESE 20:25:20 10° NNE
Cosmos 1980 Rocket 4.5 20:20:29 10° N 20:23:34 15° NE 20:26:38 10° ENE
Resurs 01 Rocket 2.9 20:21:37 10° SSW 20:25:46 39° W 20:29:59 10° NNW
Cosmos 1697 Rocket 4.4 20:22:53 10° N 20:27:18 23° NE 20:31:43 10° E
Cosmos 2369 Rocket 4.5 20:23:35 10° WNW 20:27:21 19° W 20:31:06 10° SW
SPOT 1/Viking Rocket 4.3 20:22:43 10° S 20:27:41 50° W 20:32:43 10° NNW
IRAS Rocket 4.3 20:22:57 10° NNE 20:28:37 88° ESE 20:34:11 10° SSW
USA 32 4.1 20:26:03 10° S 20:31:11 63° E 20:36:21 10° NNE
Ariane Rocket 3.8 20:31:55 10° S 20:36:50 49° W 20:41:48 10° NNW
Cosmos 1954 Rocket 4.0 20:34:09 10° NNW 20:39:29 87° ENE 20:44:08 13° SSE
Cosmos 1656 4.2 20:36:39 10° NNW 20:41:57 48° ENE 20:46:33 14° SE
Meteor 1-24 Rocket 3.6 20:37:51 10° S 20:43:09 88° W 20:48:36 10° N
CZ-2C R/B 4.0 20:39:17 10° NNE 20:43:46 48° E 20:47:51 12° S
USA 267 3.5 20:37:46 10° ENE 20:43:59 45° SE 20:50:12 10° SSW
NOSS 2-1 (C) 4.1 20:40:47 10° NW 20:45:12 75° NE 20:50:28 14° SE
Cosmos 724 4.4 20:44:41 10° SSW 20:50:19 54° ESE 20:55:57 10° NE
Cosmos 2315 Rocket 4.3 20:45:20 10° SSW 20:51:38 71° W 20:57:58 10° N
Helios 1A Rocket 2.9 20:49:35 14° S 20:53:03 81° WSW 20:57:10 10° NNW
NOSS 2-1 (D) 4.0 20:51:04 10° NW 20:55:34 87° NE 21:00:34 16° SE
Cosmos 1833 Rocket 3.7 20:53:24 16° SSE 20:56:38 26° ESE 21:01:14 10° NE
SL-8 R/B 3.9 20:53:34 10° W 20:58:24 77° N 21:03:14 10° E
ARIANE 5 R/B 2.8 20:55:09 17° SSE 20:58:28 60° ENE 21:02:51 10° N
SPOT 5 2.9 20:58:11 13° S 21:02:04 65° WSW 21:06:25 10° NNW
ATLAS 5 CENTAUR R/B 4.0 20:52:34 10° NW 21:03:45 39° WSW 21:07:16 13° S
Cosmos 1025 Rocket 4.2 21:00:01 10° SSW 21:04:04 42° WNW 21:08:10 10° N
Lacrosse 5 rocket 1.8 21:03:17 10° WNW 21:06:59 44° SW 21:09:19 21° SSE
Spot 2 Rocket 3.9 21:03:13 13° S 21:07:45 60° WSW 21:12:50 10° NNW
Cosmos 2074 Rocket 4.0 21:03:11 10° N 21:09:30 79° E 21:14:25 17° SSE
Cosmos 1452 Rocket 3.6 21:08:16 13° S 21:12:51 56° ESE 21:18:00 10° NNE
RESURS DK-1 3.1 21:09:01 10° NNW 21:13:00 43° NE 21:15:36 19° ESE
Tiangong 2.3 21:12:12 10° WSW 21:14:52 25° S 21:15:07 24° S
Cosmos 1271 Rocket 3.6 21:11:43 10° NNW 21:15:33 47° W 21:18:36 15° SSW
ATLAS 2AS CENTAUR R/B 2.9 21:09:38 10° NW 21:16:39 65° WSW 21:21:29 19° SSE
Cosmos 2082 Rocket 3.8 21:15:47 15° ESE 21:17:27 17° E 21:20:55 10° ENE
USA 234 3.6 21:12:17 10° ESE 21:18:47 67° NNE 21:25:17 10° NW
SAR-Lupe-1 4.4 21:22:38 10° NNE 21:26:07 47° E 21:27:32 29° SSE
Cosmos 1110 Rocket 4.3 21:23:04 20° S 21:26:21 47° ESE 21:31:26 10° NNE
Nadezhda 1 Rocket 4.0 21:22:54 19° S 21:27:24 64° E 21:33:24 10° NNE
Lacrosse 5 2.1 21:24:31 10° WNW 21:29:32 57° SW 21:32:24 25° SSE
Cosmos 1536 Rocket 3.8 21:26:39 14° SSW 21:30:21 67° W 21:34:41 10° N
Cosmos 2154 Rocket 4.0 21:26:40 10° N 21:32:56 83° E 21:37:10 22° SSE
USA 276 1.8 21:31:27 10° WSW 21:34:26 88° S 21:37:27 10° ENE
Terra 2.6 21:33:41 17° SSW 21:37:09 45° W 21:41:44 10° NNW
Cosmos 1610 Rocket 4.5 21:31:21 10° N 21:37:35 81° E 21:41:43 23° SSE
Cosmos 2228 2.9 21:33:37 10° N 21:37:52 82° W 21:40:08 27° S
Cosmos 1606 Rocket 3.6 21:33:51 10° N 21:38:09 66° E 21:40:15 29° SSE
Cosmos 2344 4.4 21:29:46 10° NW 21:38:28 71° NE 21:49:16 14° SE
Cosmos 1295 Rocket 4.5 21:35:41 10° N 21:41:59 90° ENE 21:46:05 23° S
Cosmos 1825 4.2 21:44:54 14° E 21:45:28 14° E 21:47:27 10° NE
ERS-1 Rocket 4.4 21:43:54 12° SSW 21:47:54 31° W 21:52:23 10° NNW
COSMOS 2406 3.7 21:49:46 26° SSE 21:52:31 43° ESE 21:57:57 10° NE
X-37B 1.1 21:51:01 10° WSW 21:53:00 37° SW 21:53:00 37° SW
Cosmos 2369 4.2 21:52:11 10° NNW 21:57:49 54° ENE 22:01:22 22° SE
Cosmos 1741 Rocket 4.3 21:53:06 10° NNW 21:58:21 59° WSW 22:01:12 27° S
SL-16 R/B 4.4 21:55:37 10° N 21:59:38 19° NE 22:03:38 10° E
Cosmos 1726 Rocket 3.4 21:59:02 10° N 22:03:22 88° WSW 22:05:09 35° S
Cosmos 968 Rocket 3.9 21:59:44 10° NNW 22:04:51 55° ENE 22:07:37 26° SE
SL-8 Rocket 4.2 21:59:24 10° N 22:05:36 60° ENE 22:09:01 27° SSE
Spot 4 4.0 22:06:05 30° SE 22:08:18 62° ENE 22:13:02 10° N
Meteor 1-11 4.3 22:05:47 29° SSE 22:08:37 61° E 22:14:08 10° NNE
Cosmos 1980 Rocket 2.6 22:03:14 10° NNW 22:08:53 58° ENE 22:12:13 24° SE
Cosmos 1697 Rocket 2.7 22:06:16 10° NNW 22:11:54 75° WSW 22:14:40 31° SSE
ALOS 2 3.4 22:11:52 27° ESE 22:13:43 42° ENE 22:17:53 10° N
Cosmos 1328 4.1 22:12:23 29° SSW 22:14:16 64° W 22:18:16 10° N
Cosmos 1892 2.9 22:13:39 43° SE 22:14:25 52° E 22:18:05 10° NNE
Cosmos 2218 Rocket 4.3 22:09:11 10° N 22:15:32 60° ENE 22:19:02 27° SSE
Cosmos 967 Rocket 4.5 22:13:03 17° SSW 22:18:09 76° ESE 22:24:39 10° NE
Cosmos 192 4.3 22:16:35 33° S 22:18:40 66° ESE 22:23:32 10° NNE
Cosmos 2366 rocket 4.2 22:14:31 10° N 22:20:49 65° ENE 22:24:11 29° SSE
Cosmos 2341 Rocket 4.0 22:15:50 10° N 22:22:13 89° W 22:25:37 30° S
In-Cosmos 22 Rocket 4.4 22:21:57 31° SSE 22:24:24 55° E 22:29:47 10° NNE
Cosmos 1633 4.4 22:24:46 18° E 22:24:56 18° E 22:27:22 10° NE
ASTEX 1 3.8 22:22:06 10° N 22:27:02 59° W 22:29:50 25° SSW
USA 267 3.6 22:20:43 10° NE 22:27:13 69° NNW 22:33:42 10° WSW
ADEOS Rocket 3.7 22:23:17 25° SE 22:27:40 66° ENE 22:35:13 10° N
Cosmos 2058 Rocket 3.1 22:30:14 10° NNW 22:34:38 72° W 22:36:09 40° S
Cosmos 1892 Rocket 4.1 22:36:30 28° SW 22:38:35 54° WNW 22:42:54 10° N
Cosmos 2322 Rocket 4.0 22:35:08 10° N 22:39:47 25° NE 22:44:27 10° ESE
Cosmos 1833 Rocket 3.3 22:35:01 11° SW 22:40:13 54° WNW 22:45:45 10° NNE
SL-8 R/B 3.6 22:36:11 10° WNW 22:40:57 64° SSW 22:42:54 34° SE
Cosmos 2278 4.0 22:37:16 10° NNW 22:42:58 64° ENE 22:46:07 27° SE
H-2A R/B 3.4 22:39:49 10° NNE 22:44:02 74° ESE 22:45:11 46° S
Cosmos 1959 Rocket 4.4 22:40:21 10° N 22:46:29 87° W 22:49:27 33° S
Cosmos 1408 3.1 22:45:59 39° WSW 22:46:47 48° WNW 22:50:09 10° N
GP-B 4.0 22:43:44 10° NNW 22:47:55 41° W 22:49:54 26° SW
Cosmos 1992 Rocket 4.4 22:46:40 36° SSE 22:48:19 49° ESE 22:53:23 10° NNE
ATLAS 5 CENTAUR R/B 2.7 22:50:40 23° ESE 22:50:40 23° ESE 22:53:20 10° ENE
RESURS DK-1 4.0 22:47:36 10° WNW 22:50:42 21° WSW 22:51:26 20° WSW
TIMED 4.4 22:50:55 46° S 22:52:09 76° ESE 22:56:32 10° NNE
Cosmos-2242 3.8 22:50:57 10° N 22:55:00 41° ENE 22:56:21 32° ESE
Cosmos 1626 Rocket 3.4 22:54:02 47° S 22:55:14 79° E 22:59:35 10° NNE
Cosmos 2181 Rocket 4.0 22:52:47 30° SSW 22:56:03 78° W 23:02:16 10° N
Cosmos 1867 3.5 22:54:28 10° NW 22:59:59 90° WSW 23:02:32 33° SE
Cosmos 2082 Rocket 2.2 22:57:34 28° SSW 23:00:46 83° WNW 23:06:32 10° NNE
USA 234 3.6 22:59:13 31° S 23:01:57 48° SW 23:08:17 10° WNW
Okean 1-7 Rocket 3.7 23:06:13 40° SSW 23:07:43 67° W 23:12:12 10° N
USA 276 3.0 23:07:22 10° WNW 23:10:17 46° N 23:13:12 10° ENE
Lacrosse 5 4.1 23:10:31 10° WSW 23:11:32 11° WSW 23:11:34 11° WSW
Cosmos 2058 4.0 23:14:21 29° ESE 23:15:17 33° E 23:19:04 10° NNE
Meteor 2-20 4.4 23:15:05 34° S 23:17:51 76° E 23:23:58 10° NNE
Cosmos 1821 Rocket 4.0 23:11:42 10° N 23:18:01 84° E 23:20:59 34° SSE
Cosmos 2360 Rocket 3.8 23:15:08 10° NNW 23:20:11 31° NE 23:25:11 10° ESE
Cosmos 1825 2.9 23:19:32 37° WSW 23:20:24 45° WNW 23:24:02 10° N
SJ 16-02 2.3 23:18:55 10° N 23:23:09 42° ENE 23:25:18 24° ESE
BREEZE-M DEB (TANK) 4.2 23:20:07 10° WNW 23:23:50 85° NNE 23:40:11 10° ESE
Cosmos 1869 4.0 23:21:19 10° NNW 23:24:55 38° W 23:25:34 35° WSW
ERS-2 2.2 23:26:11 10° N 23:29:45 66° WNW 23:30:22 53° SW
Cosmos 2084 Rocket 4.2 23:29:14 10° WNW 23:32:33 32° WSW 23:32:33 32° WSW
Nadezhda 3 Rocket 3.9 23:30:29 34° S 23:33:19 83° E 23:39:30 10° N
Cosmos 1606 2.7 23:30:43 10° N 23:34:34 78° E 23:35:18 56° SSE
PSLV R/B 3.7 23:34:15 10° NNE 23:39:03 90° E 23:40:41 42° SSW
Cosmos 1932 4.5 23:37:53 26° SW 23:41:38 82° NW 23:48:02 10° NE
Cosmos 1758 Rocket 3.6 23:41:08 43° SW 23:42:22 67° W 23:46:44 10° N
Meteor 2-20 Rocket 4.4 23:41:09 34° S 23:44:01 86° E 23:50:10 10° N
Nimbus 7 Rocket 4.4 23:38:20 10° NNE 23:44:16 88° WNW 23:47:07 33° SSW
SL-16 R/B 2.2 23:38:54 10° NNW 23:44:37 85° ENE 23:47:37 29° SSE
ALOS 2 4.2 23:49:16 20° WSW 23:50:14 22° W 23:53:38 10° NW
Cosmos 2221 3.4 23:47:29 10° N 23:51:37 42° ENE 23:53:34 26° SE
Cosmos 1980 Rocket 3.5 23:47:56 10° NW 23:52:27 25° WSW 23:53:57 22° SW
Cosmos 1812 Rocket 4.4 23:49:20 10° NNW 23:53:29 38° W 23:54:37 32° SW
